Weather History for KCRX - April, 2014

Change the Weather History Date:

Thursday, April 10, 2014

  Actual Average Record
Temperature  
Mean Temperature 59 °F -  
Max Temperature 77 °F 72 °F 90 °F (1943)
Min Temperature 41 °F 44 °F 28 °F (1966)
Degree Days  
Heating Degree Days 6    
Growing Degree Days 9 (Base 50)    
Moisture  
Dew Point 42 °F    
Average Humidity 55    
Maximum Humidity 93    
Minimum Humidity 31    
Precipitation  
Precipitation 0.00 in - - ()
Sea Level Pressure  
Sea Level Pressure 30.10 in    
Wind  
Wind Speed 7 mph (South)    
Max Wind Speed 18 mph    
Max Gust Speed 25 mph    
Visibility 10 miles    
Events      
Averages and records for this station are not official NWS values.
T = Trace of Precipitation, MM = Missing Value Source: NWS Daily Summary

Daily Weather History Graph

Daily Weather History Graph

Search for Another Location

Airport or City:

Trip Planner

Search our weather history database for the weather conditions in past years. The results will help you decide how hot, cold, wet, or windy it might be!

Date:

Astronomy

Apr. 10, 2014 Rise Set
Actual Time 6:29 AM CDT 7:22 PM CDT
Civil Twilight 6:03 AM CDT 7:48 PM CDT
Nautical Twilight 5:32 AM CDT 8:19 PM CDT
Astronomical Twilight 5:01 AM CDT 8:50 PM CDT
Moon 3:16 PM CDT (4/10) 3:41 AM CDT (4/10)
Length of Visible Light 13h 45m
Length of Day
12h 53m
Waxing Gibbous, 80% of the Moon is Illuminated
Apr 10
Waxing Gibbous
Apr 15
Full
Apr 22
Last Quarter
Apr 29
New
May 6
First Quarter

Hourly Weather History & Observations

Time (CDT) Temp. Windchill Dew Point Humidity Pressure Visibility Wind Dir Wind Speed Gust Speed Precip Events Conditions
12:10 AM 46.4 °F - 39.2 °F 76% 30.15 in 10.0 mi Calm Calm - N/A   Clear
12:30 AM 44.6 °F - 39.2 °F 81% 30.15 in 10.0 mi Calm Calm - N/A   Clear
12:50 AM 44.6 °F 43.1 °F 39.2 °F 81% 30.14 in 10.0 mi ESE 3.5 mph - N/A   Clear
1:10 AM 42.8 °F 41.1 °F 39.2 °F 87% 30.14 in 10.0 mi SE 3.5 mph - N/A   Clear
1:30 AM 42.8 °F 41.1 °F 39.2 °F 87% 30.14 in 10.0 mi SE 3.5 mph - N/A   Clear
1:50 AM 41.0 °F 37.1 °F 37.4 °F 87% 30.13 in 10.0 mi SSE 5.8 mph - N/A   Clear
2:10 AM 41.0 °F 38.0 °F 37.4 °F 87% 30.13 in 10.0 mi SSE 4.6 mph - N/A   Clear
2:30 AM 41.0 °F - 39.2 °F 93% 30.13 in 10.0 mi Calm Calm - N/A   Clear
2:50 AM 42.8 °F 41.1 °F 39.2 °F 87% 30.14 in 10.0 mi East 3.5 mph - N/A   Clear
3:10 AM 42.8 °F 41.1 °F 39.2 °F 87% 30.13 in 10.0 mi SE 3.5 mph - N/A   Clear
3:25 AM 41.0 °F 38.0 °F 39.2 °F 93% 30.13 in 10.0 mi SE 4.6 mph - N/A   Clear
3:50 AM 41.0 °F 39.0 °F 37.4 °F 87% 30.13 in 10.0 mi East 3.5 mph - N/A   Clear
4:10 AM 41.0 °F 38.0 °F 39.2 °F 93% 30.13 in 10.0 mi SE 4.6 mph - N/A   Clear
4:30 AM 41.0 °F - 39.2 °F 93% 30.13 in 10.0 mi Calm Calm - N/A   Clear
4:50 AM 41.0 °F 38.0 °F 37.4 °F 87% 30.13 in 10.0 mi SSE 4.6 mph - N/A   Clear
5:10 AM 41.0 °F 36.4 °F 37.4 °F 87% 30.13 in 10.0 mi SSE 6.9 mph - N/A   Clear
5:30 AM 41.0 °F 35.8 °F 37.4 °F 87% 30.13 in 10.0 mi SSE 8.1 mph - N/A   Clear
5:50 AM 42.8 °F 38.6 °F 37.4 °F 81% 30.14 in 10.0 mi SSE 6.9 mph - N/A   Clear
6:10 AM 42.8 °F 37.5 °F 37.4 °F 81% 30.14 in 10.0 mi South 9.2 mph - N/A   Clear
6:30 AM 44.6 °F 39.7 °F 39.2 °F 81% 30.14 in 10.0 mi SSE 9.2 mph - N/A   Clear
7:10 AM 46.4 °F 42.4 °F 39.2 °F 76% 30.15 in 10.0 mi South 8.1 mph - N/A   Clear
7:30 AM 48.2 °F - 41.0 °F 76% 30.16 in 10.0 mi SSE 6.9 mph - N/A   Clear
7:50 AM 50.0 °F - 41.0 °F 71% 30.16 in 10.0 mi South 6.9 mph - N/A   Clear
8:10 AM 53.6 °F - 41.0 °F 62% 30.16 in 10.0 mi South 10.4 mph - N/A   Clear
8:30 AM 55.4 °F - 42.8 °F 63% 30.16 in 10.0 mi South 8.1 mph - N/A   Clear
8:50 AM 57.2 °F - 41.0 °F 55% 30.16 in 10.0 mi South 10.4 mph 18.4 mph N/A   Clear
9:10 AM 59.0 °F - 41.0 °F 51% 30.16 in 10.0 mi South 11.5 mph 18.4 mph N/A   Clear
9:30 AM 60.8 °F - 41.0 °F 48% 30.17 in 10.0 mi South 12.7 mph 17.3 mph N/A   Clear
9:50 AM 62.6 °F - 41.0 °F 45% 30.17 in 10.0 mi South 12.7 mph - N/A   Clear
10:10 AM 64.4 °F - 41.0 °F 42% 30.17 in 10.0 mi South 11.5 mph - N/A   Clear
10:30 AM 66.2 °F - 41.0 °F 40% 30.17 in 10.0 mi South 12.7 mph 20.7 mph N/A   Clear
10:50 AM 66.2 °F - 41.0 °F 40% 30.16 in 10.0 mi South 12.7 mph 21.9 mph N/A   Clear
11:10 AM 68.0 °F - 42.8 °F 40% 30.16 in 10.0 mi SW 16.1 mph 21.9 mph N/A   Clear
11:30 AM 69.8 °F - 44.6 °F 40% 30.15 in 10.0 mi South 11.5 mph 19.6 mph N/A   Clear
11:50 AM 71.6 °F - 44.6 °F 38% 30.14 in 10.0 mi SSW 13.8 mph 18.4 mph N/A   Clear
12:10 PM 71.6 °F - 42.8 °F 35% 30.12 in 10.0 mi SSW 16.1 mph 23.0 mph N/A   Clear
12:30 PM 73.4 °F - 42.8 °F 33% 30.12 in 10.0 mi South 16.1 mph 24.2 mph N/A   Clear
12:50 PM 73.4 °F - 44.6 °F 36% 30.11 in 10.0 mi South 18.4 mph 21.9 mph N/A   Clear
1:10 PM 73.4 °F - 44.6 °F 36% 30.10 in 10.0 mi South 15.0 mph 18.4 mph N/A   Clear
1:30 PM 75.2 °F - 46.4 °F 36% 30.10 in 10.0 mi South 18.4 mph 21.9 mph N/A   Clear
1:50 PM 75.2 °F - 44.6 °F 34% 30.10 in 10.0 mi SSW 15.0 mph 25.3 mph N/A   Clear
2:10 PM 75.2 °F - 44.6 °F 34% 30.09 in 10.0 mi South 15.0 mph 24.2 mph N/A   Clear
2:30 PM 75.2 °F - 44.6 °F 34% 30.08 in 10.0 mi South 15.0 mph 20.7 mph N/A   Clear
2:50 PM 77.0 °F - 46.4 °F 34% 30.07 in 10.0 mi South 15.0 mph 24.2 mph N/A   Clear
3:10 PM 75.2 °F - 44.6 °F 34% 30.06 in 10.0 mi South 16.1 mph 23.0 mph N/A   Clear
3:30 PM 75.2 °F - 44.6 °F 34% 30.05 in 10.0 mi South 18.4 mph 24.2 mph N/A   Clear
3:50 PM 77.0 °F - 44.6 °F 32% 30.05 in 10.0 mi South 16.1 mph 21.9 mph N/A   Clear
4:10 PM 75.2 °F - 42.8 °F 31% 30.05 in 10.0 mi South 16.1 mph 21.9 mph N/A   Clear
4:30 PM 77.0 °F - 44.6 °F 32% 30.04 in 10.0 mi South 15.0 mph 19.6 mph N/A   Clear
4:50 PM 75.2 °F - 44.6 °F 34% 30.03 in 10.0 mi South 13.8 mph 20.7 mph N/A   Clear
5:10 PM 75.2 °F - 44.6 °F 34% 30.03 in 10.0 mi South 11.5 mph 18.4 mph N/A   Clear
5:30 PM 75.2 °F - 44.6 °F 34% 30.03 in 10.0 mi South 13.8 mph 24.2 mph N/A   Clear
5:50 PM 73.4 °F - 44.6 °F 36% 30.03 in 10.0 mi South 12.7 mph 23.0 mph N/A   Clear
6:10 PM 73.4 °F - 44.6 °F 36% 30.03 in 10.0 mi South 12.7 mph 19.6 mph N/A   Clear
6:30 PM 71.6 °F - 44.6 °F 38% 30.02 in 10.0 mi South 11.5 mph - N/A   Clear
6:50 PM 71.6 °F - 42.8 °F 35% 30.02 in 10.0 mi South 12.7 mph - N/A   Clear
7:10 PM 69.8 °F - 44.6 °F 40% 30.02 in 10.0 mi South 11.5 mph - N/A   Clear
7:30 PM 68.0 °F - 42.8 °F 40% 30.03 in 10.0 mi South 10.4 mph 16.1 mph N/A   Clear
7:50 PM 68.0 °F - 41.0 °F 37% 30.03 in 10.0 mi South 11.5 mph - N/A   Clear
8:10 PM 68.0 °F - 41.0 °F 37% 30.04 in 10.0 mi South 9.2 mph - N/A   Clear
8:30 PM 66.2 °F - 41.0 °F 40% 30.04 in 10.0 mi South 9.2 mph - N/A   Clear
8:50 PM 66.2 °F - 41.0 °F 40% 30.05 in 10.0 mi South 8.1 mph - N/A   Clear
9:10 PM 64.4 °F - 41.0 °F 42% 30.07 in 10.0 mi South 5.8 mph - N/A   Clear
9:30 PM 64.4 °F - 41.0 °F 42% 30.08 in 10.0 mi South 4.6 mph - N/A   Clear
9:50 PM 64.4 °F - 41.0 °F 42% 30.08 in 10.0 mi South 4.6 mph - N/A   Clear
10:10 PM 62.6 °F - 41.0 °F 45% 30.09 in 10.0 mi South 5.8 mph - N/A   Clear
10:30 PM 62.6 °F - 42.8 °F 48% 30.09 in 10.0 mi South 4.6 mph - N/A   Clear
10:50 PM 62.6 °F - 41.0 °F 45% 30.09 in 10.0 mi South 5.8 mph - N/A   Clear
11:10 PM 60.8 °F - 42.8 °F 52% 30.09 in 10.0 mi South 4.6 mph - N/A   Clear
11:30 PM 60.8 °F - 42.8 °F 52% 30.09 in 10.0 mi South 5.8 mph - N/A   Clear
11:50 PM 57.2 °F - 42.8 °F 59% 30.09 in 10.0 mi South 6.9 mph - N/A   Clear